Flag for Argentina Weather past 2 weeks in Buenos Aires, Argentina

Now
72 °F

Clear.


Feels Like: 76 °F
Forecast: 52 / 70 °F
Wind: 13 mph from South

Location: Buenos Aires Airport

Current Time: Aug 31, 2015 at 12:30:59 PM

Latest Report: Aug 31, 2015 at 12:00 PM


Visibility: 6 mi

Pressure: 29.98 "Hg

Humidity: 57%

Dew point: 55 °F

Location of Buenos AiresLocation

Historic Weather in Buenos Aires — Graph

°F

Buenos Aires temperature yesterday

Maximum temperature yesterday: 72 °F (at 3:00 PM)
Minimum temperature yesterday: 59 °F (at 6:00 AM)
Average temperature yesterday: 64 °F

Past Weeks' High & Low Weather Summary

 TemperatureHumidityPressure
High73 °F (Aug 29, 4:00 PM)94% (Aug 17, 12:00 PM)30.33 "Hg (Aug 17, 12:00 PM)
Low46 °F (Aug 23, 11:00 PM)28% (Aug 27, 4:00 PM)29.71 "Hg (Aug 22, 6:00 AM)
Average59 °F71%30.00 "Hg
* Reported Aug 16 11:00 AM — Aug 31 11:00 AM, Buenos Aires, Weather by CustomWeather, © 2015

Note: Actual official high and low records may vary slightly from our data, if they occured in-between our weather recording intervals... More about our weather records

Advertising

Buenos Aires weather history for previous 24 hours

 ConditionsComfort  
Time TempWeatherWind HumidityBarometerVisibility
11:00 AM
Mon, Aug 31
70 °FClear.8 mph60%29.95 "Hg6 mi
10:00 AM66 °FPassing clouds.8 mph68%29.95 "HgN/A
9:00 AM63 °FSunny.10 mph77%29.92 "Hg10 mi
8:00 AM63 °FSunny.9 mph77%29.89 "Hg10 mi
7:00 AM64 °FSunny.14 mph73%29.89 "Hg10 mi
6:00 AM63 °FClear.13 mph77%29.86 "Hg10 mi
5:00 AM63 °FClear.13 mph83%29.83 "Hg10 mi
3:00 AM64 °FPassing clouds.13 mph88%29.83 "HgN/A
2:00 AM64 °FPassing clouds.15 mph88%29.86 "HgN/A
1:00 AM64 °FClear.16 mph83%29.83 "Hg10 mi
12:00 AM64 °FClear.5 mph78%29.86 "Hg10 mi
11:00 PM
Sun, Aug 30
64 °FPassing clouds.16 mph73%29.86 "HgN/A
10:00 PM64 °FPassing clouds.18 mph73%29.86 "HgN/A
9:00 PM66 °FPassing clouds.21 mph64%29.86 "HgN/A
8:00 PM66 °FPassing clouds.15 mph60%29.86 "HgN/A
6:00 PM66 °FPartly cloudy.17 mph64%29.86 "HgN/A
5:00 PM68 °FSunny.17 mph83%29.86 "Hg10 mi
4:00 PM66 °FSunny.18 mph88%29.86 "Hg10 mi
3:00 PM72 °FSunny.18 mph73%29.86 "Hg10 mi
2:00 PM70 °FSunny.17 mph73%29.89 "Hg10 mi
1:00 PM64 °FSunny.17 mph73%29.92 "Hg10 mi
12:00 PM66 °FSunny.9 mph73%29.95 "Hg10 mi
Weather by CustomWeather, © 2015

See weather overviewHow to use our weather pages